Rush City, MN

11:00 PM CST on December 10, 2017 (GMT -0600)
Rush City Regional

Weather History for KROS - September, 2013

Change the Weather History Date:

Thursday, September 26, 2013

  Actual Average (KCBG) Record (KCBG)
Temperature  
Mean Temperature 64 °F -  
Max Temperature 77 °F 65 °F 84 °F (1986)
Min Temperature 51 °F 41 °F 23 °F (1965)
Degree Days  
Heating Degree Days 1    
Growing Degree Days 14 (Base 50)    
Moisture  
Dew Point 54 °F    
Average Humidity 70    
Maximum Humidity 89    
Minimum Humidity 49    
Precipitation  
Precipitation 0.00 in - - ()
Sea Level Pressure  
Sea Level Pressure 29.92 in    
Wind  
Wind Speed 7 mph (SE)    
Max Wind Speed 16 mph    
Max Gust Speed 26 mph    
Visibility 10 miles    
Events      
Averages and records for this station are not official NWS values.
T = Trace of Precipitation, MM = Missing Value Source: NWS Daily Summary

Daily Weather History Graph

Daily Weather History Graph

Search for Another Location

Airport or City:

Trip Planner

Search our weather history database for the weather conditions in past years. The results will help you decide how hot, cold, wet, or windy it might be!

Date:

Astronomy

Sep. 26, 2013 Rise Set
Actual Time 7:04 AM CDT 7:01 PM CDT
Civil Twilight 6:34 AM CDT 7:30 PM CDT
Nautical Twilight 5:59 AM CDT 8:05 PM CDT
Astronomical Twilight 5:24 AM CDT 8:40 PM CDT
Moon 11:44 PM CDT (9/26) 2:12 PM CDT (9/26)
Length of Visible Light 12h 56m
Length of Day
11h 56m
Waning Gibbous, 54% of the Moon is Illuminated
Sep 26
Waning Gibbous
Sep 26
Last Quarter
Oct 4
New
Oct 11
First Quarter
Oct 18
Full

Hourly Weather History & Observations

Time (CDT) Temp. Dew Point Humidity Pressure Visibility Wind Dir Wind Speed Gust Speed Precip Events Conditions
12:14 AM 51.8 °F 48.2 °F 88% 29.94 in 10.0 mi ESE 3.5 mph - N/A   Mostly Cloudy
12:35 AM 52.9 °F 48.6 °F 85% 29.94 in 10.0 mi ESE 3.5 mph - N/A   Mostly Cloudy
12:55 AM 52.7 °F 48.4 °F 85% 29.94 in 10.0 mi ESE 3.5 mph - N/A   Mostly Cloudy
1:14 AM 52.7 °F 48.2 °F 85% 29.94 in 10.0 mi SE 4.6 mph - N/A   Mostly Cloudy
1:35 AM 52.7 °F 48.2 °F 85% 29.94 in 10.0 mi SE 3.5 mph - N/A   Scattered Clouds
1:55 AM 51.8 °F 47.8 °F 86% 29.95 in 10.0 mi Calm Calm - N/A   Scattered Clouds
2:14 AM 51.6 °F 48.2 °F 88% 29.95 in 10.0 mi Calm Calm - N/A   Scattered Clouds
2:35 AM 52.0 °F 48.4 °F 88% 29.94 in 10.0 mi Calm Calm - N/A   Scattered Clouds
2:54 AM 52.0 °F 48.6 °F 88% 29.94 in 10.0 mi Calm Calm - N/A   Scattered Clouds
3:14 AM 52.2 °F 48.9 °F 89% 29.93 in 10.0 mi Calm Calm - N/A   Scattered Clouds
3:35 AM 52.7 °F 49.1 °F 88% 29.93 in 10.0 mi ESE 4.6 mph - N/A   Scattered Clouds
3:54 AM 52.9 °F 49.3 °F 88% 29.93 in 10.0 mi SE 5.8 mph - N/A   Scattered Clouds
4:14 AM 52.7 °F 49.1 °F 88% 29.92 in 10.0 mi ESE 4.6 mph - N/A   Scattered Clouds
4:35 AM 52.9 °F 49.3 °F 88% 29.93 in 10.0 mi ESE 4.6 mph - N/A   Scattered Clouds
4:54 AM 52.7 °F 49.1 °F 88% 29.93 in 10.0 mi ESE 4.6 mph - N/A   Scattered Clouds
5:14 AM 52.7 °F 49.3 °F 88% 29.93 in 10.0 mi ESE 5.8 mph - N/A   Scattered Clouds
5:35 AM 52.7 °F 49.3 °F 88% 29.93 in 10.0 mi SE 4.6 mph - N/A   Scattered Clouds
5:54 AM 52.7 °F 49.3 °F 88% 29.93 in 10.0 mi SE 4.6 mph - N/A   Scattered Clouds
6:14 AM 52.7 °F 49.3 °F 88% 29.94 in 10.0 mi SE 4.6 mph - N/A   Scattered Clouds
6:35 AM 53.1 °F 49.3 °F 87% 29.94 in 10.0 mi SE 5.8 mph - N/A   Scattered Clouds
6:54 AM 53.2 °F 49.3 °F 86% 29.94 in 10.0 mi SE 5.8 mph - N/A   Scattered Clouds
7:14 AM 53.4 °F 49.5 °F 86% 29.94 in 10.0 mi SE 4.6 mph - N/A   Scattered Clouds
7:34 AM 53.6 °F 49.6 °F 86% 29.95 in 10.0 mi SE 5.8 mph - N/A   Scattered Clouds
7:54 AM 54.0 °F 50.0 °F 86% 29.95 in 10.0 mi SE 5.8 mph - N/A   Clear
8:15 AM 55.4 °F 50.4 °F 83% 29.96 in 10.0 mi SSE 5.8 mph - N/A   Clear
8:34 AM 56.3 °F 50.4 °F 80% 29.96 in 10.0 mi SE 8.1 mph - N/A   Scattered Clouds
8:54 AM 57.4 °F 50.9 °F 79% 29.96 in 10.0 mi SE 9.2 mph - N/A   Scattered Clouds
9:15 AM 59.0 °F 51.1 °F 75% 29.96 in 10.0 mi SE 9.2 mph - N/A   Clear
9:34 AM 60.1 °F 51.1 °F 72% 29.95 in 10.0 mi SE 10.4 mph 18.4 mph N/A   Clear
9:54 AM 61.7 °F 51.6 °F 69% 29.96 in 10.0 mi SSE 10.4 mph - N/A   Clear
10:15 AM 63.0 °F 51.8 °F 67% 29.96 in 10.0 mi SSE 6.9 mph - N/A   Clear
10:34 AM 64.6 °F 52.2 °F 64% 29.96 in 10.0 mi SSE 6.9 mph - N/A   Clear
10:54 AM 66.2 °F 52.3 °F 61% 29.96 in 10.0 mi SSE 9.2 mph - N/A   Clear
11:15 AM 67.3 °F 52.9 °F 60% 29.95 in 10.0 mi SSE 8.1 mph - N/A   Scattered Clouds
11:34 AM 68.9 °F 53.6 °F 58% 29.95 in 10.0 mi SSE 11.5 mph 17.3 mph N/A   Clear
11:54 AM 69.6 °F 53.6 °F 57% 29.94 in 10.0 mi SE 12.7 mph 21.9 mph N/A   Clear
12:15 PM 70.7 °F 54.1 °F 56% 29.94 in 10.0 mi SE 12.7 mph 19.6 mph N/A   Clear
12:34 PM 71.8 °F 54.9 °F 55% 29.93 in 10.0 mi SE 10.4 mph 19.6 mph N/A   Clear
12:55 PM 73.0 °F 55.2 °F 53% 29.92 in 10.0 mi SSE 13.8 mph 20.7 mph N/A   Clear
1:15 PM 73.6 °F 55.6 °F 53% 29.91 in 10.0 mi SE 13.8 mph 17.3 mph N/A   Clear
1:34 PM 74.5 °F 56.3 °F 53% 29.91 in 10.0 mi SSE 15.0 mph 26.5 mph N/A   Clear
1:55 PM 75.4 °F 56.5 °F 52% 29.90 in 10.0 mi SSE 15.0 mph 23.0 mph N/A   Clear
2:15 PM 75.9 °F 56.7 °F 51% 29.89 in 10.0 mi SSE 16.1 mph 21.9 mph N/A   Clear
2:34 PM 76.1 °F 56.8 °F 51% 29.89 in 10.0 mi SE 16.1 mph 23.0 mph N/A   Clear
2:55 PM 76.3 °F 57.0 °F 51% 29.89 in 10.0 mi SSE 15.0 mph 21.9 mph N/A   Clear
3:15 PM 77.2 °F 57.4 °F 50% 29.88 in 10.0 mi SSE 12.7 mph 23.0 mph N/A   Clear
3:34 PM 77.2 °F 56.8 °F 49% 29.88 in 10.0 mi SSE 12.7 mph 23.0 mph N/A   Clear
3:55 PM 77.2 °F 56.8 °F 49% 29.87 in 10.0 mi SSE 15.0 mph 23.0 mph N/A   Clear
4:15 PM 77.0 °F 57.2 °F 50% 29.87 in 10.0 mi SE 15.0 mph 24.2 mph N/A   Clear
4:34 PM 76.6 °F 57.2 °F 51% 29.86 in 10.0 mi SE 15.0 mph 24.2 mph N/A   Clear
4:55 PM 77.0 °F 57.6 °F 51% 29.87 in 10.0 mi SE 12.7 mph 19.6 mph N/A   Clear
5:15 PM 76.3 °F 57.7 °F 53% 29.87 in 10.0 mi SE 13.8 mph 26.5 mph N/A   Clear
5:34 PM 76.1 °F 58.3 °F 54% 29.87 in 10.0 mi SSE 11.5 mph 19.6 mph N/A   Clear
5:55 PM 75.2 °F 58.3 °F 56% 29.87 in 10.0 mi SE 16.1 mph 24.2 mph N/A   Clear
6:15 PM 74.7 °F 58.3 °F 57% 29.87 in 10.0 mi SE 10.4 mph - N/A   Clear
6:34 PM 73.4 °F 58.5 °F 59% 29.87 in 10.0 mi SE 8.1 mph - N/A   Clear
6:55 PM 72.5 °F 58.3 °F 61% 29.87 in 10.0 mi SE 8.1 mph - N/A   Clear
7:15 PM 71.6 °F 58.1 °F 62% 29.87 in 10.0 mi SE 9.2 mph 16.1 mph N/A   Clear
7:34 PM 70.7 °F 58.1 °F 64% 29.86 in 10.0 mi SE 10.4 mph - N/A   Clear
7:55 PM 70.3 °F 58.1 °F 65% 29.87 in 10.0 mi SE 9.2 mph - N/A   Clear
8:15 PM 70.0 °F 57.9 °F 65% 29.88 in 10.0 mi SE 10.4 mph - N/A   Clear
8:34 PM 69.8 °F 58.1 °F 66% 29.88 in 10.0 mi SE 8.1 mph - N/A   Clear
8:55 PM 69.6 °F 58.1 °F 67% 29.89 in 10.0 mi SE 9.2 mph - N/A   Clear
9:14 PM 69.3 °F 58.1 °F 68% 29.89 in 10.0 mi SE 10.4 mph 16.1 mph N/A   Scattered Clouds
9:34 PM 69.3 °F 58.1 °F 68% 29.90 in 10.0 mi SE 11.5 mph 18.4 mph N/A   Clear
9:55 PM 69.1 °F 58.1 °F 68% 29.90 in 10.0 mi SSE 8.1 mph - N/A   Scattered Clouds
10:14 PM 68.9 °F 58.1 °F 68% 29.91 in 10.0 mi SE 9.2 mph - N/A   Scattered Clouds
10:34 PM 68.5 °F 58.1 °F 69% 29.91 in 10.0 mi SSE 8.1 mph - N/A   Scattered Clouds
10:55 PM 68.4 °F 58.1 °F 70% 29.91 in 10.0 mi SSE 9.2 mph - N/A   Scattered Clouds
11:14 PM 68.0 °F 57.9 °F 70% 29.91 in 10.0 mi SSE 9.2 mph - N/A   Scattered Clouds
11:35 PM 67.5 °F 57.7 °F 71% 29.92 in 10.0 mi SSE 9.2 mph - N/A   Scattered Clouds
11:54 PM 67.1 °F 57.6 °F 71% 29.92 in 10.0 mi SSE 8.1 mph - N/A   Scattered Clouds